Location: Baix
(44.7118°N, 4.7648°E)
Time: 10:04:32
(UTC+00:00)

Vanguard 2 Rocket - Pass Details

Date: 26 November 2020
Orbit: 554 x 3325 km, 32.9° (Epoch: 21 January)

Event Time Altitude Azimuth Distance (km) Brightness Sun altitude
Rises 11:36:15 0° 265° (W) 7,111 11.5 24.2°
Reaches altitude 10° 11:41:39 10° 261° (W) 5,839 11.2 24.1°
Maximum altitude 11:57:03 46° 196° (SSW) 2,687 10.8 23.9°
Drops below altitude 10° 12:06:24 10° 126° (SE) 3,631 10.4 23.6°
Sets 12:08:58 0° 120° (ESE) 4,307 10.6 23.6°
